Погода в Иртышске

Погода в Иртышске : погода сейчас, прогноз погоды и архив. Всё, что Вы хотите узнать о погоде в Иртышске!

Хотите узнать прогноз погоды в Иртышске? Тогда Вам сюда: Погода в Иртышске

Поиск расширенной информации на нашем сайте:

Другие новости

Новости СМИ2

Главная страница сайта

Новости сайта

03.07.2017

Напоминаем, что на нашем специализированном сайте Метеоцентр.Азия вы можете получить высокодетализированные автоматические прогнозы погоды по пунктам России, СНГ и мира в авиационном формате (включающие направление и скорость ветра, видимость, явления погоды, количество и форму облачности, нижнюю и верхнюю границу облачности).

Рекомендуем: Описание автозапчасти для mercedes у нас на сайте.

Погода в Иртышске - сегодня

Время (UTC), дата Ветер
(°,м/с) 
Видим.   Явления Облачность Т
(°С)
Тd
(°С)
f(%) Тe
(°С)
Pmin
(гПа)
dP
(гПа)
Po
(мм)
O2
(г/м3)
Тmin Tmax R s Состояние
почвы
09 16.04.18 250 (З) 10{17}  10 км    9/8 600 м кучево-дожд., средняя 
[Cb calv|Ac trans]
+12.6 -3.2 33 +11  1003.4  -0.5  744  287           
18 16.04.18 250 (З) н/о    10/10 600 м 
[Sc]
+2.4 -0.6 81 +3  1010.3  1.7  749  299    +12.9       
00 17.04.18 260 (З) 10 км    4/0 верхняя 
[Ci fib]
-2.3 -3.9 89 -3  1013.7  1.8  751  306           
06 17.04.18 320 (СЗ) 10 км    3/3 1000 м 
[Cu hum]
+2.6 -10.9 36 +1  1017.6  1.7  754  302  -2.8         
09 17.04.18 310 (СЗ) 10 км    3/3 1000 м 
[Cu hum]
+4.3 -13.5 26 +2  1017.7  0.1  755  300           
12 17.04.18 320 (СЗ) 10 км    4/4 1000 м 
[Cu hum]
+4 -12.8 28 +2  1018.4  0.8  755  301           
15 17.04.18 тихо ()   н/о    ясно 
+0 -10.1 47 1019.2  0.6  756  305    +5.1       
18 17.04.18 тихо ()   н/о    ясно 
-3.8 -8.3 71 -4  1020  0.7  756  310    +5.1       
21 17.04.18 тихо ()   н/о    ясно 
-3.4 -8.6 67 -3  1019.9  -0.1  756  309           
00 18.04.18 тихо ()   10 км    10/10 600 м 
[Sc]
-4.5 -9.7 67 -5  1021.1  1.1  757  311           
06 18.04.18 090 (В) 10 км    6/6 1000 м 
[Cu hum]
+4.6 -9.2 36 +5  1021.3  757  301  -4.8         
09 18.04.18 тихо ()   10 км    8/8 600 м кучево-дожд. 
[Cb calv]
+4.6 -9.2 36 +5  1020.3  -0.9  757  301           
21 18.04.18 050 (СВ) н/о  дымка  ясно 
-3.2 -3.6 97 -3  1019.4  -1.2  756  308           
00 19.04.18 040 (СВ) 10 км    6/6 600 м 
[Sc]
-4.2 -5.8 89 -5  1018.2  -1.2  755  309           
06 19.04.18 320 (СЗ) 10 км    4/4 1000 м 
[Cu hum]
+2.8 -6.6 50 +1  1018.3  0.1  755  302  -4.3         
09 19.04.18 270 (З) 10 км    4/0 верхняя 
[Ci fib]
+4.7 -9 36 +3  1018.1  -0.1  755  300           
12 19.04.18 350 (С) 10 км    ясно 
+4.4 -10.7 32 +3  1019.1  756  301           
15 19.04.18 210 (ЮЗ) н/о    3/0 верхняя 
[Ci fib]
+0.4 -8.5 51 +1  1020  0.7  756  305    +5.1       
18 19.04.18 190 (Ю) н/о    ясно 
-0.4 -8.8 53 -1  1020  756  306    +5.1       
21 19.04.18 210 (ЮЗ) н/о    ясно 
-1.8 -6.4 71 -4  1019.7  -0.4  756  307           
00 20.04.18 180 (Ю) 10 км    4/0 верхняя 
[Ci fib]
-2.8 -6.2 77 -5  1019.1  -0.7  755  308           
06 20.04.18 160 (Ю) 10 км    6/0 средняя 
[Ac trans]
+10.3 -5.6 32 +9  1015.1  -2.9  753  293  -3         
09 20.04.18 200 (Ю) 10 км    10/10 600 м 
[Sc]
+12.4 -1 39 +11  1012.8  -2.2  751  290           
18 20.04.18 190 (Ю) н/о    8/0 средняя 
[Ac trans]
+7.6 +3.4 75 +7  1011.5  -0.7  750  294    +13.1       
21 20.04.18 230 (ЮЗ) н/о    10/0 средняя 
[As op]
+7 +2.9 75 +6  1011.4  -0.1  750  294           
Время (UTC), дата Ветер
(°,м/с) 
Видим.   Явления Облачность Т
(°С)
Тd
(°С)
f(%) Тe
(°С)
Pmin
(гПа)
dP
(гПа)
Po
(мм)
O2
(г/м3)
Тmin Tmax R s Состояние
почвы

Для получения пояснительной информации подведите курсор к названию столбца.

ПОГОДА в Иртышске - архив

Всё, что Вы хотите узнать о погоде в Иртышске - удобно и подробно!

Выберите нужную дату (начиная с 1 января 2015* года) и нажмите кнопку "Найти".
Будут отображены архивные сводки погоды по пункту Иртышск, начиная с указанной даты.


Отображать данные в формате CSV (для использования в таблицах Excel)


Внимание! Наш архив погоды предназначен исключительно для личного некоммерческого использования в познавательных целях. Если Вам необходимы официальные справки о состоянии погоды (для производственных, юридических, коммерческих и т.п. целей), обращайтесь в органы Росгидромета.

*Примечание: данная дата относится к архиву по метеостанциям СССР (Россия, СНГ, Балтия).
Архив по метеостанциям Зарубежной Европы и Азии (кроме Китая) хранится 10 дней, по другим регионам земного шара (Китай, Африка, Америка, Австралия, Океания) - 1 день.

Иртышск - район местоположения метеостанции


Название, широта, долгота, высота метеостанции:
Иртышск 53.3°ш. 75.4°д. 94 м над ур. моря [Казахстан]

Дополнительная информация

В oтличие oт бoльшинства пoгoдных сайтoв мы публикуем пoдрoбную метеoинфoрмацию в детальнoм прoфессиoнальнoм фoрмате.

Характеристики температуры и влажнoсти вoздуха измеряются на высoте 2 м в тени вдали oт зданий и деревьев.
Скoрoсть ветра измеряется на высoте 10 м (на урoвне рoста челoвека скoрoсть ветра ниже в 1.5-2 раза). Если метеoстанция нахoдится в гoрoде или в лесу, тo скoрoсть ветра занижена на 2-4 м/с пo сравнению с oткрытым местoм. Скoрoсть ветра над акватoриями крупных рек и oзёр, а также на вершинах хoлмoв на 2-5 м/с выше, чем в oбычных услoвиях.
Атмoсфернoе давление в разных тoчках местнoсти мoжет значительнo oтличаться oт давления на метеoстанции, в зависимoсти oт услoвий рельефа (при пoдъёме на 10 м давление пoнижается примернo на 1 мм рт.ст.).